Tracking 35035 objects as of 16-Aug-2026
HD Live streaming from Space Station
objects crossing your sky now

COSMOS 57 DEB


COSMOS 57 DEB is no longer on orbit


NORAD ID: 1152
Int'l Code: 1965-012BG
Launch date: February 22, 1965
Source: Commonwealth of Independent States (former USSR) (CIS)
Launch site: TYURATAM MISSILE AND SPACE COMPLEX (TTMTR)
Decay date: 1965-03-16

Note: This is SATELLITE DEBRIS
Your satellite tracking list
Your tracking list is empty




NASA's NSSDC Master Catalog

Two Line Element Set (TLE):
1 01152U 65012 BG 65065.84055563  .00510811 +52237-3 +00000-0 0  9999
2 01152 064.6728 254.9467 0240902 102.0834 260.6261 15.86623339001983
Source of the keplerian elements: AFSPC